Terug naar catalogus

STARLINK-30590

ActiefCommunicatieVLEO
NORAD 58090·PAYLOAD·🇺🇸 United States

Gelanceerd Oct 18, 2023 vanaf Cape Canaveral Space Force Station

Loading…

Volgende Passages (komende 24 uur)

TLE

VersSource: CelesTrak SupGP

Epoch: Sep 15, 2026, 02:48 UTC

1 58090C 23160R   26258.11715278  .00007021  00000+0  25429-3 0  2581
2 58090  43.0021  91.7210 0001473 271.8148  86.2906 15.27577075    18

Volg STARLINK-30590 in realtime met AllMySat

Download on the App Store